Simultaneous Nadir Overpasses (SNOs) Predictions

Prediction of SNOs between FY3D and LANDSAT-8 Satellite Orbit:

Table of predicted SNOs for the next 14.0 days since TLE Epoch: 2/15/2020
Index Date (FY3D) Time (FY3D) Lat,Lon (FY3D) SZA (FY3D ) Date (LANDSAT-8) Time (LANDSAT-8) Lat,Lon (LANDSAT-8) SZA (LANDSAT-8 ) Distance(km) Time Diff (sec)
1 02/16/2020 12:43:54 70.48, -14.20 82.92 02/16/2020 12:44:24 70.46, -14.19 82.88 2.92 30
2 02/16/2020 13:34:35 -70.36, 153.32 97.23 02/16/2020 13:33:54 -70.34, 153.28 97.24 2.26 41
3 02/19/2020 05:00:19 70.50, 101.68 81.99 02/19/2020 05:00:52 70.49, 101.73 81.97 2.42 33
4 02/19/2020 05:51:00 -70.37, -90.79 98.16 02/19/2020 05:50:22 -70.38, -90.80 98.15 0.95 38
5 02/21/2020 21:16:43 70.46,-142.36 80.99 02/21/2020 21:17:21 70.46,-142.43 80.98 2.59 38
6 02/21/2020 22:07:25 -70.38, 25.09 99.12 02/21/2020 22:06:51 -70.35, 25.05 99.14 3.30 34
7 02/24/2020 13:33:08 70.48, -26.49 80.03 02/24/2020 13:33:49 70.49, -26.51 80.03 1.12 41
8 02/24/2020 14:23:50 -70.39, 140.98 100.09 02/24/2020 14:23:19 -70.38, 140.97 100.09 0.99 31
9 02/27/2020 05:49:32 70.50, 89.39 79.05 02/27/2020 05:50:16 70.51, 89.40 79.05 1.22 44
10 02/27/2020 06:40:14 -70.40,-103.14 101.08 02/27/2020 06:39:46 -70.41,-103.12 101.07 1.03 28




NCC Satellite Simultaneous Nadir Overpasses (SNOs) Prediction Service
